Regional Weather Roundup
Issued by NWS

Home | Current Version | Previous Version | Graphics & Text | Print | Product List | Glossary On
Versions: 1 2 3 4 5 6 7 8 9 10 11 12 13 14 15 16 17 18 19 20 21 22 23 24 25 26 27 28
000
ASUS45 KSLC 221110
RWRUT

UTAH REGIONAL WEATHER ROUNDUP
NATIONAL WEATHER SERVICE SALT LAKE CITY UT
500 AM MDT SUN OCT 22 2017

UTZ001>011-023>025-221200-

NORTHERN UTAH

CITY           SKY/WX    TMP DP  RH WIND       PRES   REMARKS
BRIGHAM CITY   CLOUDY    48  23  37 CALM      30.34S
HILL AFB       CLOUDY    47  18  30 S7        30.34R
LOGAN          PTCLDY    43  28  55 CALM      30.32F
OGDEN          CLOUDY    45  23  42 S5        30.34R
SALT LAKE CITY MOCLDY    48  26  42 SE9       30.34R
TOOELE VALLEY  CLOUDY    43  19  39 S9        30.34R
WENDOVER       PTCLDY    38  21  50 N3        30.33S
WEST JORDAN    CLOUDY    44  28  52 S10       30.35S

$$

UTZ011>015-024>027-221200-

CENTRAL/NORTHEAST UTAH

CITY           SKY/WX    TMP DP  RH WIND       PRES   REMARKS
PROVO AIRPORT  CLOUDY    36  23  59 SE7       30.38R WCI  30
MOAB/CANYONLAN CLEAR     34  10  37 CALM      30.33F
DELTA          PTCLDY    34  16  47 NE3       30.37R
PRICE          CLEAR     33  16  49 NE9       30.37R WCI  25
RICHFIELD      CLEAR     28  19  69 CALM      30.42R
ROOSEVELT      CLOUDY    34  18  51 CALM      30.36S
VERNAL         CLOUDY    32  17  54 W3        30.35R

$$

UTZ013>016-019>022-027-221200-

SOUTHERN UTAH

CITY           SKY/WX    TMP DP  RH WIND       PRES   REMARKS
BRYCE CANYON   CLEAR     27  12  53 W7        30.43S WCI  19
CEDAR CITY     CLEAR     32  16  51 CALM      30.37R
MILFORD        CLEAR     30  11  45 SW7       30.37R WCI  23
ST GEORGE      SUNNY     47  12  24 SE7       30.32S
HANKSVILLE     CLEAR     34  12  40 N3        30.37S
KANAB          CLEAR     37  14  38 NE2       30.39S
BLANDING         N/A     33   6  32 NE6       30.44S WCI  27

$$

REGIONAL REPORTS     COLORADO/ARIZONA

CITY           SKY/WX    TMP DP  RH WIND       PRES   REMARKS
CRAIG, CO      CLOUDY    28  23  81 CALM      30.37R
GRAND JUNCTION CLOUDY    36  16  44 SE9       30.38F WCI  29
RIFLE, CO      CLOUDY    29  23  78 CALM      30.42S
MONTROSE, CO   CLOUDY    29  16  58 SE6       30.43F WCI  23
CORTEZ, CO     CLOUDY    26  11  52 E9        30.39S WCI  17
COLORADO CITY    N/A     34  14  44 E6        30.38S WCI  29
PAGE, AZ       CLEAR     46  17  31 W3        30.34R
GRAND CANYON   MOCLDY    28   7  41 NE5       30.41S WCI  23
KINGMAN, AZ    CLEAR     46  14  27 E6        30.28S
FLAGSTAFF, AZ  PTCLDY    27  11  51 CALM      30.41R

$$

REGIONAL REPORTS    NEVADA/IDAHO/WYOMING

CITY           SKY/WX    TMP DP  RH WIND       PRES   REMARKS
LAS VEGAS, NV  CLEAR     58  19  22 W7        30.25F
ELY, NY        CLEAR     30  17  58 S9        30.41R WCI  22
ELKO, NV       PTCLDY    31  25  78 N3        30.34R
POCATELLO, ID  CLOUDY    49  34  56 S18       30.25S
BURLEY, ID     MOCLDY    43  37  79 SW9       30.24F
FORT BRIDGER,    N/A     37  23  55 W8        30.35R WCI  31
EVANSTON, WY   CLOUDY    38  20  48 W15       30.34R WCI  29
ROCK SPRINGS,  CLOUDY    37  17  44 SW23G31   30.30R WCI  26
KEMMERER, WY   CLOUDY    34  21  60 SW9       30.30S WCI  26

$$




USA.gov is the U.S. government's official web portal to all federal, state and local government web resources and services.